This is the latest recevied weather packets stored in our database for station/object KC5DAQ-26. If no packets are shown the sender has not sent any weather packets the latest 10 day(s).
| Time | Temp. | Humidity | Pressure | Rain* | Wind** | Luminosity | Snow |
|---|---|---|---|---|---|---|---|
| 1787926802 | 27.22° C | 90% | 1020.3 hPa | 0 mm | - | 281 W/m² | - |
| 1787926743 | 27.22° C | 90% | 1020.3 hPa | 0 mm | - | 324 W/m² | - |
| 1787926682 | 27.22° C | 89% | 1020.3 hPa | 0 mm | - | 373 W/m² | - |
| 1787926623 | 27.22° C | 89% | 1020.4 hPa | 0 mm | - | 336 W/m² | - |
| 1787926565 | 27.22° C | 89% | 1020.4 hPa | 0 mm | - | 454 W/m² | - |
| 1787926503 | 27.22° C | 90% | 1020.3 hPa | 0 mm | - | 455 W/m² | - |
| 1787926442 | 27.22° C | 92% | 1020.4 hPa | 0 mm | - | 448 W/m² | - |
| 1787926385 | 27.22° C | 92% | 1020.4 hPa | 0 mm | - | 441 W/m² | - |
| 1787926324 | 26.67° C | 91% | 1020.2 hPa | 0 mm | - | 433 W/m² | - |
| 1787926262 | 26.67° C | 93% | 1020.2 hPa | 0 mm | - | 422 W/m² | - |
| 1787926203 | 26.67° C | 93% | 1020.1 hPa | 0 mm | - | 417 W/m² | - |
| 1787926145 | 26.67° C | 94% | 1020.1 hPa | 0 mm | - | 408 W/m² | - |
| 1787926082 | 26.67° C | 94% | 1020.2 hPa | 0 mm | - | 397 W/m² | - |
| 1787926022 | 26.67° C | 94% | 1020.2 hPa | 0 mm | - | 383 W/m² | - |
| 1787925962 | 26.11° C | 95% | 1020.2 hPa | 0 mm | - | 375 W/m² | - |
| 1787925899 | 26.11° C | 95% | 1020.2 hPa | 0 mm | - | 394 W/m² | - |
| 1787925839 | 26.11° C | 96% | 1020.2 hPa | 0 mm | - | 396 W/m² | - |
| 1787925774 | 26.11° C | 96% | 1020.3 hPa | 0 mm | - | 396 W/m² | - |
| 1787925713 | 26.11° C | 96% | 1020.3 hPa | 0 mm | - | 401 W/m² | - |
| 1787925654 | 26.11° C | 96% | 1020.3 hPa | 0 mm | - | 406 W/m² | - |
| 1787925591 | 26.11° C | 96% | 1020.2 hPa | 0 mm | - | 401 W/m² | - |
| 1787925531 | 26.11° C | 96% | 1020.2 hPa | 0 mm | - | 392 W/m² | - |
| 1787925476 | 26.11° C | 96% | 1020.1 hPa | 0 mm | - | 382 W/m² | - |
| 1787925412 | 25.56° C | 96% | 1020.1 hPa | 0 mm | - | 380 W/m² | - |
| 1787925351 | 25.56° C | 96% | 1020.1 hPa | 0 mm | - | 375 W/m² | - |
* Rain latest hour (hover to see other rain measurements)
** Current wind speed in m/s (hover to see current wind gust speed)